Dewpoint
67 68 71 67 67 65 63 62 63 62 64 61 60 61 61 61 61 61 61 59 58 59 55 54 59 61 61 61 61 60 61 61 61 61 61 60 63 65 67 67 67 64 62 62 61 60 62 62 61 61 59 59 60 60 59 60 58 58 59 59 60 60 61 62 63 63 64 65 65 66 66 66 66 66 65 64 64 64 64 65 64 64 64 64 64
67 68 67 70 67 67 66 63 63 63 65 63 61 60 60 61 61 60 57 59 58 58 58 56 54 59 60 62 61 61 62 61 61 60 61 62 63 66 67 66 67 65 63 63 63 60 62 61 62 60 60 58 59 59 57 60 58 57 58 59 60 60 61 62 63 64 65 65 66 66 66 66 66 64 63 63 63 63 63 63 63 63 63 63 62
69 67 67 69 67 67 67 65 64 65 65 62 63 61 61 60 61 59 58 57 57 57 57 57 54 52 58 60 61 62 62 62 60 60 59 60 61 64 65 67 67 66 64 66 64 61 61 62 61 61 60 59 59 57 59 60 58 59 57 59 59 60 61 62 64 65 65 66 66 66 66 66 64 62 62 62 62 62 62 62 62 62 61 61 60
68 68 65 68 67 66 66 65 65 65 64 62 63 62 61 59 60 62 62 61 59 58 58 57 55 51 55 57 61 62 62 62 61 60 59 60 60 61 63 63 67 66 65 66 66 64 63 62 61 62 59 60 59 57 59 58 58 58 59 60 60 61 62 63 64 65 66 66 66 66 66 65 63 62 62 62 61 61 61 61 61 60 59 59 59
71 69 65 66 69 70 67 66 65 65 66 65 63 65 62 62 63 63 61 60 60 60 57 58 55 53 55 56 60 61 61 60 61 61 59 59 58 57 59 59 62 66 65 65 65 66 65 63 63 62 62 60 58 58 58 57 58 57 58 60 61 62 63 63 64 66 66 66 66 66 65 64 63 62 62 62 61 61 61 61 59 59 59 59 58
68 69 70 66 68 68 67 65 64 65 66 67 66 65 62 61 61 62 61 59 58 59 57 56 53 53 55 56 59 62 62 59 60 60 60 59 57 60 58 57 57 61 61 66 65 66 66 65 63 63 62 62 61 59 58 59 58 57 59 61 62 62 63 64 65 66 66 66 65 64 64 63 62 62 62 62 61 60 60 59 58 58 58 58 57
66 68 69 69 69 69 70 66 64 66 65 66 65 66 64 62 61 60 60 58 56 56 56 55 55 54 56 58 56 57 60 59 59 59 57 60 60 58 60 57 56 56 56 56 64 66 65 66 63 63 62 62 62 61 61 61 60 58 59 61 62 63 63 64 66 67 66 65 63 62 62 62 62 62 61 61 60 60 59 58 58 57 57 56 56
66 66 67 67 68 69 69 70 67 64 64 65 65 65 64 62 62 61 60 57 56 55 55 56 56 54 54 58 59 59 59 58 58 57 58 58 57 59 59 59 60 58 58 56 58 59 64 65 65 63 62 62 62 61 61 60 59 58 59 61 62 63 63 65 67 66 65 64 63 63 62 62 61 61 61 60 60 59 59 58 57 56 56 56 55
63 64 66 66 67 67 68 69 70 67 65 65 65 64 64 61 63 62 62 60 54 53 55 57 54 54 52 56 58 60 59 58 58 60 55 58 57 56 59 59 59 60 60 59 57 59 64 65 64 65 64 62 60 60 60 61 60 58 59 61 62 63 64 66 66 65 64 64 63 63 62 61 60 61 60 60 60 58 58 57 56 56 56 55 55
60 62 64 63 64 66 66 66 66 69 69 66 64 62 63 64 63 63 62 62 59 54 54 55 51 49 53 56 57 58 59 59 59 59 56 56 57 56 56 58 59 59 59 59 56 57 60 63 64 64 64 63 61 59 58 61 59 59 60 61 62 63 64 67 66 65 64 63 62 61 61 60 60 60 60 60 59 58 57 56 56 55 55 55 55
60 59 61 62 63 62 61 63 64 66 67 68 66 64 63 63 62 62 63 62 61 57 54 54 49 48 50 54 55 58 59 58 59 58 56 56 55 55 53 57 58 58 60 60 58 56 57 60 61 59 61 62 63 62 60 60 59 59 60 61 64 66 66 67 66 64 63 62 61 60 60 60 60 60 60 60 59 57 56 56 55 55 55 54 53
58 59 59 59 60 61 61 61 63 63 63 65 64 65 64 63 62 60 61 62 61 58 55 54 52 52 54 55 55 56 56 58 59 58 58 56 54 55 55 56 58 58 58 57 58 56 56 57 61 57 56 61 62 62 62 62 62 61 61 62 64 66 67 66 65 64 63 61 61 60 60 60 60 60 59 59 58 57 56 55 55 55 54 53 53
57 57 60 58 59 60 60 60 62 62 62 64 64 65 65 63 63 62 60 60 60 59 53 54 51 52 56 55 56 55 56 58 58 57 55 54 54 55 56 56 57 57 57 58 56 56 54 56 57 58 57 59 61 61 61 62 62 61 59 60 61 64 67 65 64 63 62 61 60 60 59 59 60 60 59 58 57 56 55 54 54 53 53 53 52
57 58 58 58 58 58 60 61 62 64 63 63 65 65 64 64 63 61 61 60 58 56 53 53 50 50 53 53 54 55 56 56 54 53 53 52 56 58 59 57 54 56 58 57 56 55 54 55 56 56 56 56 58 61 61 61 61 62 60 59 61 63 66 65 63 62 61 61 59 59 58 59 60 60 59 58 57 56 55 54 53 53 52 52 52
56 56 57 57 57 58 59 60 61 63 65 66 66 65 66 66 65 64 59 60 60 57 57 55 49 50 54 52 51 51 54 53 56 53 53 53 56 56 56 54 52 53 56 57 56 56 53 54 55 56 57 57 55 56 57 59 58 59 60 58 59 61 63 64 63 62 61 60 60 59 58 59 60 59 59 58 56 55 54 53 53 52 52 52 51
53 53 55 55 57 57 58 58 59 62 64 64 64 64 65 65 65 64 64 61 62 57 56 55 53 49 49 49 51 51 48 53 54 55 54 55 57 57 56 54 52 53 54 56 55 56 56 55 55 57 57 57 57 56 56 57 54 59 59 62 63 62 61 64 62 62 61 60 59 59 59 59 60 59 59 57 56 55 54 53 52 52 52 51 50
55 55 54 55 57 57 58 58 59 60 61 62 61 63 65 66 64 64 64 63 61 63 57 54 53 54 50 49 48 49 47 47 54 53 53 52 54 56 56 55 50 53 52 53 53 56 55 55 57 57 58 57 57 57 57 54 51 52 58 61 62 62 62 63 62 62 62 60 59 59 59 59 59 59 58 56 55 54 53 53 52 51 51 50 50
53 54 54 55 56 56 58 59 60 59 60 61 63 66 66 66 65 65 65 64 62 61 58 57 55 53 51 52 52 47 48 47 50 49 55 56 54 52 55 56 52 53 55 53 52 51 54 56 58 58 59 58 57 56 53 52 52 52 57 59 60 61 61 61 62 62 61 60 59 58 58 59 59 59 58 57 55 54 53 53 52 52 52 51 50
54 54 54 54 55 56 56 57 58 59 60 61 61 63 64 65 66 65 65 64 63 61 61 61 61 53 49 52 53 54 55 52 50 51 49 53 54 54 52 50 51 52 53 53 53 53 54 54 55 54 56 57 55 52 53 52 54 58 60 60 59 59 59 57 59 62 61 60 58 57 58 59 59 58 58 57 55 54 53 52 52 52 51 51 50
53 53 53 53 54 55 55 56 55 56 57 58 59 61 63 64 65 65 65 65 63 61 62 65 62 59 54 52 55 56 54 53 53 50 48 49 49 52 52 54 55 56 55 54 54 54 57 55 51 51 51 51 52 51 51 52 57 59 64 59 58 59 57 56 56 57 59 59 57 57 57 58 58 58 57 56 55 53 52 51 51 50 50 49 49
52 53 54 53 53 54 55 55 54 55 54 56 59 60 61 62 65 63 63 64 64 62 62 63 63 61 59 56 54 54 53 53 51 51 48 49 47 49 52 54 56 56 56 57 56 57 57 56 53 51 52 54 53 53 55 58 59 60 60 58 59 57 56 55 54 55 55 58 57 56 56 57 58 58 56 55 54 53 52 51 49 49 48 47 47
52 52 53 53 53 54 53 54 55 55 55 55 57 59 60 62 62 64 64 64 65 63 62 63 63 64 64 59 56 55 55 53 52 53 51 52 46 43 52 53 53 54 57 57 58 58 57 58 57 53 53 56 56 57 58 60 62 60 61 58 56 56 55 54 52 52 53 57 56 56 56 56 57 57 56 54 54 52 51 50 49 48 47 47 46
50 51 52 52 53 54 54 54 54 54 54 54 55 56 58 61 61 63 64 64 64 63 62 63 63 63 63 63 62 59 55 54 54 53 53 51 48 49 50 48 52 54 56 56 56 55 55 58 58 57 58 59 57 58 60 62 61 59 58 57 56 55 53 52 52 52 54 57 56 55 55 55 55 55 55 54 53 52 51 49 48 47 47 46 46
50 49 51 52 52 53 54 55 53 54 53 54 56 57 58 59 60 62 62 63 63 63 62 62 62 62 63 63 62 63 60 55 55 55 53 52 52 50 47 47 47 49 51 56 56 54 54 54 54 55 57 57 59 60 61 62 61 58 58 56 55 53 51 51 51 52 52 56 56 55 55 55 55 55 54 53 52 50 49 49 48 46 45 45 44
48 48 50 52 51 52 52 52 53 53 54 54 54 55 56 57 59 61 61 62 62 63 62 62 62 62 62 63 63 64 64 61 56 56 56 55 53 51 46 45 46 46 46 53 53 52 54 52 53 53 55 58 58 60 61 62 60 57 57 55 53 52 51 51 51 51 51 52 54 55 55 53 53 52 51 50 50 50 49 49 49 48 47 42 40
47 48 49 50 50 51 51 52 52 53 53 54 54 55 56 55 56 58 60 61 61 62 62 61 62 61 61 62 62 63 62 60 58 59 56 55 54 52 52 47 48 43 44 48 50 49 51 52 54 54 55 59 60 62 63 61 59 55 55 54 52 52 50 50 50 49 49 49 49 50 51 53 53 51 51 51 50 48 47 47 46 45 45 46 43
46 47 48 49 49 50 51 51 51 52 53 54 54 54 56 55 54 56 58 59 61 61 61 62 60 59 62 62 61 63 64 61 61 59 59 57 54 54 53 50 48 49 46 46 48 48 50 53 55 56 58 61 61 62 61 60 57 53 52 54 53 50 49 48 48 46 45 44 45 45 46 47 48 48 48 46 46 47 45 45 46 45 45 45 44
47 47 47 48 48 49 49 50 50 51 52 53 54 54 54 54 54 55 56 57 59 61 61 60 60 62 62 62 62 62 62 63 62 60 57 58 57 55 54 52 48 46 47 46 46 46 49 51 54 56 57 59 61 62 60 57 54 52 54 53 51 49 47 46 45 44 43 43 43 43 44 45 45 46 46 47 47 46 45 44 44 44 44 44 42
47 47 47 47 47 48 48 49 50 51 52 52 52 53 54 54 54 54 55 56 57 57 62 62 61 62 61 62 61 62 62 62 62 62 61 59 57 57 53 52 51 46 44 46 48 46 48 50 49 53 54 56 59 59 58 56 51 52 53 51 50 50 46 45 43 43 43 43 43 43 44 45 46 47 48 48 46 46 46 45 45 44 44 42 40
47 47 45 46 46 47 47 47 48 49 49 50 51 52 54 53 54 54 53 54 55 56 59 62 63 62 61 61 61 60 61 62 62 63 63 63 63 61 55 53 52 49 48 44 46 50 47 53 53 51 51 53 55 55 55 51 48 51 48 47 48 46 44 43 43 43 43 43 44 44 45 45 46 47 47 46 45 45 45 45 44 43 42 41 41
46 45 45 45 45 46 46 46 47 47 48 49 50 50 52 53 53 53 54 54 52 54 56 57 60 61 62 61 61 60 61 62 63 63 63 64 64 63 64 54 53 54 51 48 44 49 51 52 52 51 52 53 52 51 48 48 46 45 43 43 39 43 43 42 43 43 44 44 44 44 45 44 44 44 44 44 44 43 43 43 42 42 41 41 41
44 44 44 44 44 45 45 45 46 46 47 48 49 49 50 51 53 53 53 53 52 52 52 55 56 58 59 60 61 62 60 61 62 62 64 64 64 64 65 61 53 54 52 50 48 47 52 52 53 52 52 54 48 46 46 42 38 45 41 39 39 42 34 38 43 43 43 43 44 44 44 43 43 43 43 44 44 43 42 41 41 40 40 39 38
43 43 43 43 43 44 44 44 44 45 45 46 48 49 49 51 52 52 52 52 52 51 51 52 54 56 57 58 58 62 61 62 61 61 61 64 64 65 65 64 56 53 52 52 50 49 53 54 54 51 53 52 48 46 41 40 41 40 39 36 35 36 34 35 39 43 43 43 42 42 42 42 42 42 42 42 42 41 41 40 39 39 38 37 37
43 42 42 43 43 43 43 43 44 44 45 45 46 47 47 48 50 51 53 52 52 52 53 50 50 51 55 56 56 57 57 59 61 60 60 62 63 63 63 63 60 53 54 51 49 47 54 56 54 53 51 50 48 44 42 42 41 38 32 33 34 33 32 33 32 40 43 42 41 41 41 41 41 41 40 40 40 40 39 39 38 37 36 36 36
42 42 42 42 43 43 43 43 43 43 44 44 45 46 46 47 47 49 51 52 52 52 53 52 50 50 51 54 57 57 59 61 62 62 62 62 62 62 62 64 61 56 55 51 49 48 56 55 54 49 50 50 48 43 41 41 39 34 30 33 32 32 32 33 32 37 42 41 41 40 40 40 40 40 40 39 39 39 39 38 37 38 37 36 35
43 43 42 42 42 42 42 42 42 43 44 44 44 44 45 45 46 47 48 50 51 52 52 52 51 51 50 51 54 58 56 58 60 60 60 61 62 61 61 61 61 59 58 55 53 50 54 55 53 48 49 48 45 43 41 39 37 34 33 35 33 31 31 29 31 33 39 41 40 40 41 41 40 39 39 38 38 37 37 36 36 36 36 36 35
43 44 43 42 42 42 42 41 41 42 43 43 43 43 44 45 45 46 47 48 50 51 51 51 52 52 51 51 52 52 56 59 61 62 60 62 60 61 61 61 61 58 57 55 53 51 56 54 52 50 49 47 43 40 38 36 35 33 33 33 33 31 32 31 32 34 40 41 41 40 40 40 39 39 38 38 37 37 36 35 35 35 35 34 34
44 45 43 41 41 40 40 40 40 41 41 41 42 42 43 44 44 45 46 47 48 49 51 52 51 52 53 52 53 52 52 57 60 62 62 61 60 59 61 61 60 58 58 56 58 54 54 55 52 49 50 46 41 42 40 39 35 33 32 33 32 32 33 34 32 29 30 29 35 36 39 38 39 38 37 37 36 36 35 35 35 34 33 33 33
42 43 42 41 41 40 40 40 40 40 40 41 41 42 42 43 43 44 45 46 47 48 50 52 52 52 52 52 53 53 53 54 58 58 60 60 59 61 62 63 61 60 60 59 53 53 53 56 50 50 48 45 44 41 38 37 36 34 35 34 34 33 35 32 30 29 30 31 35 38 34 33 35 32 36 35 35 35 34 34 34 33 33 34 33
42 41 40 40 40 40 40 40 40 40 40 40 40 41 41 42 43 44 44 45 46 48 50 51 52 52 52 53 53 52 53 53 58 59 61 63 62 61 62 62 61 59 60 59 56 54 52 54 52 49 48 46 45 43 37 37 35 34 33 35 34 34 34 34 32 30 30 31 30 30 35 35 36 38 37 37 35 36 36 34 33 32 33 33 34
41 40 40 40 39 39 39 39 39 39 40 40 40 40 41 42 42 43 44 44 45 46 48 50 51 52 52 53 53 52 53 52 51 55 56 56 60 61 63 62 61 61 62 61 60 54 53 53 51 51 48 47 45 42 38 37 36 35 35 36 35 34 33 33 32 31 30 28 26 25 23 28 26 28 22 24 27 32 29 33 33 33 34 34 33
40 40 40 40 39 39 38 38 38 39 40 40 41 40 41 41 42 43 44 44 45 46 47 49 50 51 52 53 53 50 49 48 49 51 51 52 53 59 62 63 63 62 62 60 60 57 54 53 50 48 47 47 44 42 40 40 40 40 37 37 35 33 33 32 32 31 29 26 24 23 21 25 26 24 21 22 28 28 29 28 27 29 31 33 33
40 40 40 39 39 39 38 38 38 39 39 39 39 39 39 40 41 42 43 44 45 45 47 49 50 50 52 51 53 52 51 49 50 48 49 49 50 51 52 55 57 61 61 61 59 57 55 53 51 49 48 47 45 44 42 41 42 40 38 38 37 35 32 30 28 30 28 26 24 23 23 26 26 23 20 20 28 29 27 30 33 33 32 33 33
40 41 41 39 39 39 39 38 38 38 39 39 38 38 38 39 40 42 42 42 44 46 46 48 49 50 51 52 53 54 54 53 52 56 52 49 48 49 50 50 51 52 53 59 59 57 56 53 51 51 50 48 45 44 43 42 41 40 40 39 37 35 34 32 31 31 30 29 26 25 25 26 26 25 26 23 25 29 28 33 35 32 33 31 31
40 39 38 39 38 38 38 37 37 38 38 38 38 38 38 38 38 40 41 42 42 44 46 49 50 50 51 51 52 53 54 50 52 51 57 58 49 46 49 50 50 49 49 49 50 57 56 54 52 51 50 50 47 45 45 43 42 41 40 37 37 35 35 34 33 31 31 32 28 26 25 26 26 24 26 27 27 31 24 36 34 35 33 31 29
38 38 38 38 38 37 37 37 37 37 38 38 37 38 38 38 37 38 41 41 42 43 44 46 49 51 51 51 51 52 53 54 53 52 53 57 58 55 56 57 58 54 48 47 46 47 52 56 54 52 52 51 48 47 47 46 44 41 39 38 38 37 36 36 35 36 35 35 29 28 27 24 24 25 22 26 26 31 28 33 35 33 31 30 28
37 36 37 37 37 37 37 37 37 37 38 37 37 37 37 37 37 38 40 41 41 42 44 45 47 49 52 52 52 52 53 53 53 52 53 54 58 58 57 58 60 59 59 58 57 56 55 57 56 56 55 55 54 51 47 45 44 43 43 43 43 43 38 37 37 35 31 32 33 30 27 25 24 22 22 24 26 27 27 33 31 29 29 28 28
37 37 36 37 36 36 37 37 37 36 37 36 36 37 37 37 38 40 40 40 41 42 43 45 46 47 49 52 52 52 53 53 49 46 49 54 56 57 56 57 54 51 47 41 42 45 55 58 57 56 56 55 48 50 48 49 48 43 41 40 39 37 35 33 31 32 32 30 31 28 27 23 24 21 19 24 24 24 26 25 35 30 27 27 28
36 36 35 36 36 36 36 36 36 36 36 37 36 36 37 37 38 40 40 41 41 42 43 45 46 47 48 51 52 52 53 53 48 46 47 50 55 56 55 53 51 48 45 43 38 38 38 38 38 38 39 39 39 39 40 40 42 42 39 36 35 35 36 32 28 25 25 26 28 29 25 22 22 18 23 23 22 22 26 25 24 30 32 29 31
35 35 35 35 35 35 36 36 36 36 37 37 37 36 37 37 39 40 41 41 41 42 43 44 45 46 47 48 51 52 53 52 46 46 45 52 56 56 53 50 47 46 44 42 40 38 36 36 36 36 37 37 37 38 38 38 39 41 40 37 40 40 38 32 27 24 24 22 23 26 26 22 22 19 19 20 21 24 24 25 27 28 33 32 33
35 34 34 34 34 34 35 36 38 37 37 38 38 37 37 37 39 41 41 41 42 42 43 45 46 47 47 47 48 50 51 51 42 44 45 51 56 55 52 50 47 46 45 43 41 39 38 38 39 39 38 39 41 41 40 38 39 41 44 41 39 43 42 40 34 25 21 22 22 27 21 22 21 17 21 20 19 20 24 24 22 26 27 25 27